Date String (YYYY-MM-DD hh:mm:ss) UTC,Instrument flags,Ambient pressure (hPa),Sample flow (lpm),Bypass flow (lpm),Sample temperature (°C),Ambient temperature (°C),ASC tube jacket temperature (°C),LED temperature (°C),Box temperature (°C),Sample RH (%),Span deviation,Mass concentration (μg/m³),Mass concentration (μg/m³),Mass concentration (μg/m³)
DateTimeUTC,F1_M11,P_M11,Q1_M11,Q2_M11,T1_M11,T2_M11,T3_M11,T4_M11,T5_M11,U1_M11,ZSPAN_M11,X0_M11,X2_M11,X1_M11
2022-08-18 06:00:00,,0831.2,5.00,0.00,29.7,28.6,00.0,38.4,31.6,19.1,0000.0,0007.91,0004.53,0004.21
2022-08-18 06:01:00,,0831.2,4.99,0.00,29.7,28.6,00.0,38.4,31.6,19.2,0000.0,0007.72,0004.51,0004.21
2022-08-18 06:02:00,,0831.2,5.00,0.00,29.7,28.7,00.0,38.4,31.7,19.3,0000.0,0007.43,0004.54,0004.21
2022-08-18 06:03:00,,0831.2,5.01,0.00,29.8,28.7,00.0,38.5,31.7,19.3,0000.0,0007.55,0004.59,0004.22
2022-08-18 06:04:00,,0831.3,5.00,0.00,29.8,28.8,00.0,38.5,31.7,19.4,0000.0,0007.59,0004.61,0004.23
2022-08-18 06:05:00,,0831.3,5.00,0.00,29.8,28.8,00.0,38.5,31.7,19.5,0000.0,0007.66,0004.62,0004.24
2022-08-18 06:06:00,,0831.3,4.99,0.00,29.8,28.8,00.0,38.5,31.8,19.3,0000.0,0008.05,0004.62,0004.25
2022-08-18 06:07:00,,0831.3,5.01,0.00,29.8,28.9,00.0,38.5,31.7,19.3,0000.0,0008.74,0004.64,0004.26
2022-08-18 06:08:00,,0831.4,5.00,0.00,29.9,28.9,00.0,38.5,31.8,19.3,0000.0,0008.93,0004.69,0004.27
2022-08-18 06:09:00,,0831.4,4.99,0.00,29.9,28.9,00.0,38.6,31.8,19.2,0000.0,0009.10,0004.72,0004.28
2022-08-18 06:10:00,,0831.4,5.00,0.00,29.9,29.0,00.0,38.6,31.9,19.2,0000.0,0009.08,0004.76,0004.29
2022-08-18 06:11:00,,0831.4,5.00,0.00,29.9,28.8,00.0,38.6,31.8,19.2,0000.0,0008.95,0004.77,0004.29
2022-08-18 06:12:00,,0831.3,5.01,0.00,29.9,28.1,00.0,38.5,31.6,19.3,0000.0,0008.88,0004.76,0004.30
2022-08-18 06:13:00,,0831.4,4.99,0.00,29.8,27.6,00.0,38.5,31.5,19.4,0000.0,0008.68,0004.70,0004.31
2022-08-18 06:14:00,,0831.3,5.00,0.00,29.7,27.5,00.0,38.5,31.4,19.5,0000.0,0008.77,0004.69,0004.31
2022-08-18 06:15:00,,0831.3,4.99,0.00,29.7,27.5,00.0,38.5,31.4,19.6,0000.0,0008.84,0004.70,0004.31
2022-08-18 06:16:00,,0831.3,5.01,0.00,29.6,27.6,00.0,38.4,31.3,19.7,0000.0,0009.10,0004.71,0004.32
2022-08-18 06:17:00,,0831.3,5.00,0.00,29.6,27.7,00.0,38.4,31.4,19.7,0000.0,0008.77,0004.71,0004.32
2022-08-18 06:18:00,,0831.3,5.00,0.00,29.6,27.8,00.0,38.4,31.4,19.9,0000.0,0008.13,0004.71,0004.32
2022-08-18 06:19:00,,0831.2,5.01,0.00,29.6,28.0,00.0,38.4,31.4,20.1,0000.0,0007.92,0004.66,0004.31
2022-08-18 06:20:00,,0831.2,5.01,0.00,29.6,28.1,00.0,38.4,31.4,20.0,0000.0,0007.79,0004.63,0004.30
2022-08-18 06:21:00,,0831.2,5.00,0.00,29.6,28.2,00.0,38.4,31.4,19.9,0000.0,0007.60,0004.61,0004.31
2022-08-18 06:22:00,,0831.1,5.00,0.00,29.6,28.3,00.0,38.4,31.5,19.8,0000.0,0007.57,0004.60,0004.33
2022-08-18 06:23:00,,0831.2,5.00,0.00,29.6,28.3,00.0,38.4,31.5,19.9,0000.0,0008.17,0004.61,0004.33
2022-08-18 06:24:00,,0831.2,4.99,0.00,29.7,28.4,00.0,38.4,31.6,19.9,0000.0,0008.83,0004.64,0004.34
2022-08-18 06:25:00,,0831.2,5.00,0.00,29.7,28.5,00.0,38.4,31.6,20.1,0000.0,0008.75,0004.65,0004.34
2022-08-18 06:26:00,,0831.2,5.00,0.00,29.7,28.5,00.0,38.4,31.6,19.9,0000.0,0008.67,0004.65,0004.36
2022-08-18 06:27:00,,0831.2,5.00,0.00,29.7,28.6,00.0,38.4,31.6,20.3,0000.0,0008.36,0004.65,0004.36
2022-08-18 06:28:00,,0831.2,5.01,0.00,29.7,28.6,00.0,38.5,31.6,20.1,0000.0,0008.44,0004.68,0004.37
2022-08-18 06:29:00,,0831.1,5.00,0.00,29.7,28.7,00.0,38.5,31.7,20.0,0000.0,0008.85,0004.71,0004.39
2022-08-18 06:30:00,,0831.2,5.01,0.00,29.8,28.7,00.0,38.5,31.7,20.0,0000.0,0009.06,0004.75,0004.41
2022-08-18 06:31:00,,0831.2,5.01,0.00,29.8,28.7,00.0,38.5,31.7,20.1,0000.0,0009.11,0004.77,0004.42
2022-08-18 06:32:00,,0831.2,4.99,0.00,29.8,28.8,00.0,38.5,31.7,20.1,0000.0,0009.19,0004.78,0004.42
2022-08-18 06:33:00,,0831.2,5.01,0.00,29.8,28.8,00.0,38.5,31.7,20.2,0000.0,0009.24,0004.80,0004.42
2022-08-18 06:34:00,,0831.2,5.00,0.00,29.8,28.8,00.0,38.5,31.8,20.0,0000.0,0008.75,0004.80,0004.43
2022-08-18 06:35:00,,0831.2,5.01,0.00,29.9,28.9,00.0,38.6,31.8,20.0,0000.0,0008.06,0004.80,0004.44
2022-08-18 06:36:00,,0831.2,4.99,0.00,29.9,28.9,00.0,38.6,31.8,19.9,0000.0,0008.01,0004.81,0004.44
2022-08-18 06:37:00,,0831.2,5.00,0.00,29.9,28.9,00.0,38.6,31.8,19.7,0000.0,0008.02,0004.80,0004.43
2022-08-18 06:38:00,,0831.2,5.01,0.00,29.9,28.9,00.0,38.6,31.9,20.0,0000.0,0008.35,0004.80,0004.43
2022-08-18 06:39:00,,0831.2,5.00,0.00,30.0,29.0,00.0,38.6,31.9,20.0,0000.0,0008.36,0004.77,0004.44
2022-08-18 06:40:00,,0831.2,5.01,0.00,30.0,29.0,00.0,38.6,31.9,19.8,0000.0,0007.97,0004.77,0004.44
2022-08-18 06:41:00,,0831.1,5.00,0.00,30.0,28.8,00.0,38.6,31.9,19.8,0000.0,0007.80,0004.76,0004.44
2022-08-18 06:42:00,,0831.1,4.99,0.00,29.9,28.0,00.0,38.6,31.6,20.2,0000.0,0008.06,0004.76,0004.44
2022-08-18 06:43:00,,0831.2,5.01,0.00,29.9,27.6,00.0,38.5,31.5,20.0,0000.0,0008.17,0004.76,0004.45
2022-08-18 06:44:00,,0831.2,4.99,0.00,29.7,27.5,00.0,38.5,31.4,20.1,0000.0,0008.31,0004.77,0004.47
2022-08-18 06:45:00,,0831.2,5.02,0.00,29.7,27.5,00.0,38.5,31.3,20.2,0000.0,0008.41,0004.82,0004.48
2022-08-18 06:46:00,,0831.2,4.99,0.00,29.6,27.6,00.0,38.5,31.3,20.3,0000.0,0008.39,0004.81,0004.48
2022-08-18 06:47:00,,0831.2,4.99,0.00,29.6,27.7,00.0,38.5,31.4,20.3,0000.0,0008.75,0004.81,0004.49
2022-08-18 06:48:00,,0831.2,4.98,0.00,29.6,27.8,00.0,38.5,31.4,20.4,0000.0,0009.02,0004.86,0004.51
2022-08-18 06:49:00,,0831.2,5.01,0.00,29.6,28.0,00.0,38.4,31.4,20.3,0000.0,0008.91,0004.89,0004.52
2022-08-18 06:50:00,,0831.2,5.00,0.00,29.6,28.1,00.0,38.4,31.4,20.7,0000.0,0008.81,0004.90,0004.52
2022-08-18 06:51:00,,0831.2,5.00,0.00,29.6,28.2,00.0,38.4,31.5,21.0,0000.0,0008.82,0004.89,0004.51
2022-08-18 06:52:00,,0831.2,5.00,0.00,29.6,28.2,00.0,38.4,31.5,20.3,0000.0,0008.89,0004.91,0004.52
2022-08-18 06:53:00,,0831.2,5.00,0.00,29.6,28.3,00.0,38.4,31.5,20.4,0000.0,0008.72,0004.94,0004.52
2022-08-18 06:54:00,,0831.2,4.99,0.00,29.6,28.4,00.0,38.4,31.5,20.1,0000.0,0008.62,0004.95,0004.52
2022-08-18 06:55:00,,0831.2,4.99,0.00,29.7,28.4,00.0,38.4,31.5,20.5,0000.0,0008.56,0004.98,0004.52
2022-08-18 06:56:00,,0831.2,5.00,0.00,29.7,28.5,00.0,38.4,31.6,21.3,0000.0,0008.57,0004.96,0004.51
2022-08-18 06:57:00,,0831.2,4.99,0.00,29.7,28.5,00.0,38.5,31.6,20.9,0000.0,0008.55,0004.96,0004.52
2022-08-18 06:58:00,,0831.2,5.00,0.00,29.7,28.6,00.0,38.5,31.6,20.6,0000.0,0008.34,0004.95,0004.51
2022-08-18 06:59:00,,0831.2,5.00,0.00,29.7,28.6,00.0,38.5,31.6,19.9,0000.0,0008.47,0004.89,0004.49
